Location: Newark
(54.3386°S, 169.8415°W)
Time: 23:34:44
(UTC+00:00)

deb Explorer IX - All Passes

Search period start: 20 October 2019 00:00
Search period end: 30 October 2019 00:00
Orbit: 545 x 1106 km, 38.8° (Epoch: 20 October)

Date Brightness Start Highest point End Pass type
(mag) Time Alt. Az. Time Alt. Az. Time Alt. Az.
20 Oct - 14:09:24 10° NNW 14:12:03 14° N 14:14:31 10° NNE visible
20 Oct - 15:57:01 10° NNW 15:57:40 10° NNW 15:58:18 10° N daylight
21 Oct - 12:03:17 10° N 12:04:24 11° NNE 12:05:31 10° NNE visible
21 Oct - 13:47:13 10° NNW 13:50:09 15° N 13:52:54 10° NNE visible
21 Oct - 15:34:37 10° NNW 15:35:48 11° NNW 15:36:56 10° N daylight
22 Oct - 11:40:40 10° N 11:42:29 11° NNE 11:44:13 10° NE visible
22 Oct - 13:25:02 10° NW 13:28:15 15° N 13:31:15 10° NE visible
22 Oct - 15:12:20 10° NW 15:13:54 11° NNW 15:15:26 10° N visible
23 Oct - 11:18:14 10° N 11:20:33 12° NNE 11:22:45 10° NE night (unlit)
23 Oct - 13:02:51 10° NW 13:06:21 16° N 13:09:34 10° NE visible
23 Oct - 14:50:06 10° NW 14:52:01 12° NNW 14:53:51 10° N visible
24 Oct - 10:55:52 10° N 10:58:35 13° NNE 11:01:11 10° NE night (unlit)
24 Oct - 12:40:40 10° NW 12:44:26 17° N 12:47:53 10° NE visible
24 Oct - 14:27:53 10° NW 14:30:07 12° NNW 14:32:15 10° N visible
25 Oct - 10:33:33 10° N 10:36:38 14° NNE 10:39:33 10° NE night (unlit)
25 Oct - 12:18:29 10° NW 12:22:30 18° N 12:26:11 10° NE visible
25 Oct - 14:05:41 10° NW 14:08:12 13° NNW 14:10:36 10° N visible
26 Oct - 10:11:15 10° NNW 10:14:39 14° NNE 10:17:52 10° NE night (unlit)
26 Oct - 11:56:18 10° NW 12:00:33 18° N 12:04:27 10° NE visible
26 Oct - 13:43:29 10° NW 13:46:17 14° NNW 13:48:56 10° N visible
27 Oct - 09:49:00 10° NNW 09:52:40 15° NNE 09:56:09 10° NE night (unlit)
27 Oct - 11:34:07 10° NW 11:38:35 19° N 11:42:42 10° NE night (unlit)
27 Oct - 13:21:17 10° NW 13:24:22 14° NNW 13:27:14 10° N visible
28 Oct - 09:26:45 10° NNW 09:30:39 16° NNE 09:34:23 10° NE visible
28 Oct - 11:11:56 10° NW 11:16:37 20° N 11:20:54 10° NE night (unlit)
28 Oct - 12:59:06 10° NW 13:02:24 15° NNW 13:05:30 10° NNE visible
29 Oct - 09:04:32 10° NNW 09:08:39 16° NNE 09:12:35 10° NE visible
29 Oct - 10:49:47 10° NW 10:54:38 20° N 10:59:07 10° NE night (unlit)
29 Oct - 12:36:55 10° NW 12:40:26 15° NNW 12:43:45 10° NNE night (unlit)
